time_stamp(utc),avg(mph),gust(mph),direction(deg),12m_air_temp(f),sonic_u(cm/s),sonic_v(cm/s),sonic_w(cm/s),pressure,2m_air_temp(f),pyranometer(W/m^2)
"2016-12-28 00:00:21+00",9.5,10.5,,52.8,-404,-58,0,1011.43,47,0
"2016-12-28 00:05:21+00",10.2,11.2,,52.7,-420,-92,1,1011.44,47,0
"2016-12-28 00:10:21+00",9.7,10.7,,52.4,-393,-124,3,1011.47,46.6,0
"2016-12-28 00:15:21+00",9.0,9.0,,52.2,-405,-189,1,1011.46,46.2,0
"2016-12-28 00:20:21+00",9.1,10.1,,52.2,-420,-187,5,1011.52,45.8,0
"2016-12-28 00:25:21+00",10.1,11.1,,52.3,-469,-208,6,1011.56,45.7,0
"2016-12-28 00:30:21+00",13.2,14.2,,52.9,-544,-175,14,1011.68,45.6,0
"2016-12-28 00:35:21+00",12.8,12.8,,53.2,-525,-124,6,1011.61,45.5,0
"2016-12-28 00:40:21+00",11.5,12.5,,54.5,-496,-73,6,1011.7,45.5,0
"2016-12-28 00:45:21+00",11.8,11.8,,53.9,-476,-118,4,1011.71,45.5,0
"2016-12-28 00:50:21+00",10.6,11.6,,54.5,-463,-26,7,1011.67,45.5,0
"2016-12-28 00:55:21+00",10.9,11.9,,54.5,-475,-26,7,1011.72,45.6,0
"2016-12-28 01:00:21+00",10.6,11.6,,54.2,-461,-12,8,1011.77,45.9,0
"2016-12-28 01:05:21+00",10.2,11.2,,53.6,-450,-8,11,1011.86,46.4,0
"2016-12-28 01:10:21+00",11.3,11.3,,53.4,-503,49,18,1011.9,47.2,0
"2016-12-28 01:15:21+00",11.3,11.3,,53.4,-497,90,14,1011.72,47.4,0
"2016-12-28 01:20:21+00",8.7,9.7,,52.4,-375,100,15,1011.89,47,0
"2016-12-28 01:25:21+00",7.1,7.1,,49.6,-302,91,8,1011.82,46.3,0
"2016-12-28 01:30:21+00",7.4,8.4,,48.7,-314,82,10,1011.9,45.4,0
"2016-12-28 01:35:21+00",8.3,9.3,,49.2,-341,134,15,1011.77,44.7,0
"2016-12-28 01:40:21+00",10.0,10.0,,50.4,-422,168,21,1011.91,44.6,0
"2016-12-28 01:45:21+00",9.1,9.1,,50.6,-361,188,17,1011.81,44.3,0
"2016-12-28 01:50:21+00",9.1,9.1,,50.4,-360,180,15,1011.84,43.9,0
"2016-12-28 01:55:21+00",9.1,9.1,,50.2,-361,181,12,1011.86,43.6,0
"2016-12-28 02:00:21+00",8.8,9.8,,50.1,-341,192,14,1011.87,43.4,0
"2016-12-28 02:05:21+00",8.7,9.7,,49.7,-343,176,10,1011.89,43.2,0
"2016-12-28 02:10:21+00",10.3,10.3,,49.6,-399,229,17,1011.95,43,0
"2016-12-28 02:15:21+00",11.3,11.3,,50,-426,270,21,1012.07,43,0
"2016-12-28 02:20:21+00",10.2,11.2,,49.6,-377,253,20,1012.02,43,0
"2016-12-28 02:25:21+00",10.8,10.8,,49.2,-371,300,20,1012.14,43.1,0
"2016-12-28 02:30:21+00",11.3,11.3,,48.9,-369,339,23,1012.18,43.3,0
"2016-12-28 02:35:21+00",11.6,12.6,,48.7,-352,373,24,1012.22,43.5,0
"2016-12-28 02:40:21+00",11.2,11.2,,49.1,-363,343,26,1012.22,43.9,0
"2016-12-28 02:45:21+00",10.6,11.6,,48.9,-319,343,26,1012.35,44.3,0
"2016-12-28 02:50:21+00",10.7,10.7,,48.9,-326,338,25,1012.48,44.2,0
"2016-12-28 02:55:21+00",11.1,12.1,,48.7,-340,351,24,1012.35,44,0
"2016-12-28 03:00:21+00",12.0,13.0,,48.8,-379,373,27,1012.47,43.7,0
"2016-12-28 03:05:21+00",11.8,12.8,,49,-381,359,28,1012.49,43.8,0
"2016-12-28 03:10:21+00",11.1,12.1,,48.3,-346,345,28,1012.49,43.9,0
"2016-12-28 03:15:21+00",10.5,11.5,,47.5,-325,332,23,1012.43,43.9,0
"2016-12-28 03:20:21+00",11.3,12.3,,47.2,-310,393,23,1012.44,43.7,0
"2016-12-28 03:25:21+00",11.0,12.0,,46.9,-285,392,25,1012.48,43.4,0
"2016-12-28 03:30:21+00",11.7,12.7,,47.2,-317,406,25,1012.55,43.5,0
"2016-12-28 03:35:21+00",11.5,12.5,,47.3,-342,384,27,1012.6,43.6,0
"2016-12-28 03:40:21+00",10.0,11.0,,46.7,-309,319,22,1012.71,43.7,0
"2016-12-28 03:45:21+00",9.4,9.4,,46.1,-289,295,20,1012.74,43.4,0
"2016-12-28 03:50:21+00",10.7,11.7,,46.3,-323,346,24,1012.92,43.2,0
"2016-12-28 03:55:21+00",10.8,13.8,,46.7,-288,369,30,1012.9,43,0
"2016-12-28 04:00:21+00",12.0,13.0,,46.9,-338,410,31,1012.93,43.2,0
"2016-12-28 04:05:21+00",12.3,13.3,,47.4,-342,423,25,1012.97,43.9,0
"2016-12-28 04:10:21+00",11.4,13.4,,47.3,-305,400,25,1013,44.3,0
"2016-12-28 04:15:21+00",10.7,11.7,,47,-309,355,28,1013.15,44.4,0
"2016-12-28 04:20:21+00",10.2,11.2,,46.6,-304,336,27,1013.31,44.1,0
"2016-12-28 04:25:21+00",10.4,11.4,,46.5,-284,352,21,1013.37,43.7,0
"2016-12-28 04:30:21+00",9.9,10.9,,46.3,-261,346,22,1013.41,43.3,0
"2016-12-28 04:35:21+00",11.2,12.2,,46.3,-263,414,27,1013.36,42.9,0
"2016-12-28 04:40:21+00",9.7,10.7,,46.3,-200,370,23,1013.42,42.5,0
"2016-12-28 04:45:21+00",8.8,9.8,,45.9,-115,359,15,1013.35,42.2,0
"2016-12-28 04:50:21+00",9.4,10.4,,46.2,-112,391,12,1013.42,41.9,0
"2016-12-28 04:55:21+00",9.3,10.3,,46,-116,388,17,1013.42,41.6,0
"2016-12-28 05:00:21+00",9.6,10.6,,45.6,-178,380,20,1013.54,41.2,0
"2016-12-28 05:05:21+00",9.5,10.5,,45.4,-185,371,23,1013.45,41,0
"2016-12-28 05:10:21+00",9.5,10.5,,45,-223,351,29,1013.47,40.9,0
"2016-12-28 05:15:21+00",10.3,10.3,,44.6,-242,380,23,1013.59,40.8,0
"2016-12-28 05:20:21+00",11.8,12.8,,44.6,-257,447,25,1013.49,40.5,0
"2016-12-28 05:25:21+00",11.6,12.6,,44.5,-229,461,20,1013.51,40.5,0
"2016-12-28 05:30:21+00",11.2,12.2,,44.2,-214,445,25,1013.5,40.6,0
"2016-12-28 05:35:21+00",10.0,11.0,,43.7,-176,396,18,1013.64,40.5,0
"2016-12-28 05:40:21+00",9.3,10.3,,43.3,-160,375,16,1013.62,40.3,0
"2016-12-28 05:45:21+00",9.2,10.2,,43,-167,369,21,1013.78,40,0
"2016-12-28 05:50:21+00",9.6,9.6,,42.9,-106,401,12,1013.97,39.6,0
"2016-12-28 05:55:21+00",10.1,11.1,,43.2,-148,411,19,1013.92,39.3,0
"2016-12-28 06:00:21+00",10.8,11.8,,43.2,-119,456,12,1014.04,39.1,0
"2016-12-28 06:05:21+00",12.5,13.5,,43.3,-167,519,18,1014.06,38.8,0
"2016-12-28 06:10:21+00",11.9,12.9,,43.1,-156,494,20,1014.19,38.6,0
"2016-12-28 06:15:21+00",11.0,12.0,,42.5,-149,453,17,1014.29,38.5,0
"2016-12-28 06:20:21+00",10.9,11.9,,42.5,-136,455,16,1014.31,38.4,0
"2016-12-28 06:25:21+00",12.5,14.5,,42.3,-172,512,18,1014.37,38.7,0
"2016-12-28 06:30:21+00",14.3,17.3,,42.8,-314,559,39,1014.49,39.7,0
"2016-12-28 06:35:21+00",17.0,19.0,,43.2,-401,655,33,1014.61,40.6,0
"2016-12-28 06:40:21+00",14.1,16.1,,42.9,-298,551,30,1014.63,40.9,0
"2016-12-28 06:45:21+00",12.5,13.5,,42.6,-264,488,25,1014.71,40.8,0
"2016-12-28 06:50:21+00",12.2,13.2,,42.3,-262,476,26,1014.83,40.5,0
"2016-12-28 06:55:21+00",13.0,14.0,,42,-283,483,29,1015.01,40.2,0
"2016-12-28 07:00:21+00",10.4,12.4,,41.7,-211,403,26,1014.99,40,0
"2016-12-28 07:05:21+00",8.9,9.9,,41.5,-131,365,15,1014.99,39.7,0
"2016-12-28 07:10:21+00",10.2,11.2,,41.2,-139,418,16,1015.13,39.3,0
"2016-12-28 07:15:21+00",9.5,10.5,,41,-113,388,16,1015.17,38.8,0
"2016-12-28 07:20:21+00",9.6,10.6,,41,-131,394,17,1015.18,38.4,0
"2016-12-28 07:25:21+00",10.0,11.0,,40.6,-130,410,17,1015.36,38,0
"2016-12-28 07:30:21+00",10.8,11.8,,40.6,-108,466,8,1015.47,37.9,0
"2016-12-28 07:35:21+00",11.6,13.6,,40.3,-123,493,13,1015.6,37.9,0
"2016-12-28 07:40:21+00",11.6,12.6,,40.3,-157,475,15,1015.68,38,0
"2016-12-28 07:45:21+00",10.8,11.8,,40.6,-192,435,22,1015.56,38.2,0
"2016-12-28 07:50:21+00",9.3,10.3,,40.6,-169,365,17,1015.43,38.2,0
"2016-12-28 07:55:21+00",10.6,11.6,,40.6,-193,426,24,1015.62,38,0
"2016-12-28 08:00:21+00",11.0,12.0,,40.6,-290,391,27,1015.7,38,0
"2016-12-28 08:05:21+00",11.8,12.8,,40.3,-285,440,22,1015.93,38,0
"2016-12-28 08:10:21+00",9.9,10.9,,39.7,-240,361,19,1015.71,37.9,0
"2016-12-28 08:15:21+00",9.5,10.5,,39.5,-238,345,24,1015.75,37.6,0
"2016-12-28 08:20:21+00",9.3,10.3,,39.4,-219,344,21,1015.77,37.4,0
"2016-12-28 08:25:21+00",10.1,11.1,,39.4,-248,363,26,1015.9,37,0
"2016-12-28 08:30:21+00",10.6,11.6,,39.4,-262,383,26,1016.1,36.8,0
"2016-12-28 08:35:21+00",10.4,11.4,,39.4,-238,386,23,1016.01,36.7,0
"2016-12-28 08:40:21+00",9.5,10.5,,39.1,-214,354,22,1016,36.6,0
"2016-12-28 08:45:21+00",10.1,11.1,,38.9,-232,375,24,1016.2,36.4,0
"2016-12-28 08:50:21+00",9.9,10.9,,38.7,-228,373,23,1016.27,36.2,0
"2016-12-28 08:55:21+00",10.6,12.6,,38.9,-240,393,18,1016.32,36.2,0
"2016-12-28 09:00:21+00",9.8,10.8,,38.7,-231,370,26,1016.41,36.3,0
"2016-12-28 09:05:21+00",11.3,13.3,,38.7,-276,422,21,1016.5,36.5,0
"2016-12-28 09:10:21+00",11.5,14.5,,38.5,-248,438,24,1016.58,36.7,0
"2016-12-28 09:15:21+00",10.7,12.7,,38.5,-243,401,19,1016.46,36.8,0
"2016-12-28 09:20:21+00",10.0,11.0,,38.5,-242,364,23,1016.47,36.7,0
"2016-12-28 09:25:21+00",8.6,9.6,,38.2,-208,312,20,1016.44,36.5,0
"2016-12-28 09:30:21+00",8.3,9.3,,38.2,-207,297,18,1016.57,36.3,0
"2016-12-28 09:35:21+00",7.5,7.5,,38.3,-184,264,17,1016.58,36,0
"2016-12-28 09:40:21+00",6.9,7.9,,38.3,-178,243,16,1016.69,35.7,0
"2016-12-28 09:45:21+00",6.7,7.7,,38.4,-176,228,17,1016.74,35.5,0
"2016-12-28 09:50:21+00",6.4,6.4,,38.5,-159,220,13,1016.84,35.4,0
"2016-12-28 09:55:21+00",6.2,7.2,,38.6,-164,212,15,1016.92,35.3,0
"2016-12-28 10:00:21+00",6.8,7.8,,38.6,-163,246,12,1016.99,35.3,0
"2016-12-28 10:05:21+00",5.0,6.0,,38.5,-171,130,19,1017.01,35.2,0
"2016-12-28 10:10:21+00",5.6,6.6,,38.3,-201,119,12,1017.16,35.2,0
"2016-12-28 10:15:21+00",5.2,5.2,,38.3,-181,138,18,1017.16,35.1,0
"2016-12-28 10:20:21+00",5.0,6.0,,38.4,-202,79,24,1017.34,35.2,0
"2016-12-28 10:25:21+00",5.6,6.6,,38.4,-237,56,13,1017.37,35.4,0
"2016-12-28 10:30:21+00",5.3,6.3,,38.5,-224,43,11,1017.43,35.6,0
"2016-12-28 10:35:21+00",4.6,5.6,,38.5,-193,51,13,1017.6,35.6,0
"2016-12-28 10:40:21+00",4.9,4.9,,38.5,-192,79,11,1017.68,35.6,0
"2016-12-28 10:45:21+00",6.3,8.3,,38.5,-243,133,18,1017.62,35.7,0
"2016-12-28 10:50:21+00",6.5,7.5,,38.7,-239,158,24,1017.71,35.9,0
"2016-12-28 10:55:21+00",6.5,7.5,,38.8,-213,186,20,1017.72,36.2,0
"2016-12-28 11:00:21+00",7.7,8.7,,39,-254,226,18,1017.75,36.6,0
"2016-12-28 11:05:21+00",8.3,10.3,,39.1,-266,248,25,1017.81,37,0
"2016-12-28 11:10:21+00",8.6,9.6,,39,-277,258,31,1017.89,37.3,0
"2016-12-28 11:15:21+00",9.2,10.2,,38.9,-305,263,32,1017.96,37.4,0
"2016-12-28 11:20:21+00",8.1,9.1,,38.5,-289,199,27,1018.22,37.3,0
"2016-12-28 11:25:21+00",7.8,8.8,,38.2,-306,155,22,1018.28,36.9,0
"2016-12-28 11:30:21+00",7.9,8.9,,38.1,-316,161,25,1018.41,36.6,0
"2016-12-28 11:35:21+00",7.3,8.3,,38.2,-291,149,15,1018.42,36.3,0
"2016-12-28 11:40:21+00",8.7,9.7,,38.3,-344,184,22,1018.57,36.1,0
"2016-12-28 11:45:21+00",5.0,6.0,,38.1,-189,95,15,1018.54,36.1,0
"2016-12-28 11:50:21+00",6.3,7.3,,37.9,-260,85,13,1018.61,36,0
"2016-12-28 11:55:21+00",7.2,8.2,,37.9,-287,110,19,1018.68,36.2,0
"2016-12-28 12:00:21+00",7.2,8.2,,38.3,-293,119,26,1018.88,36.2,0
"2016-12-28 12:05:21+00",6.0,7.0,,38.1,-240,90,15,1018.93,36.4,0
"2016-12-28 12:10:21+00",8.2,9.2,,38,-283,223,34,1019.03,36.3,0
"2016-12-28 12:15:21+00",8.0,8.0,,38,-310,171,21,1019.01,36.4,0
"2016-12-28 12:20:21+00",6.8,7.8,,38,-254,133,13,1019.14,36.3,0
"2016-12-28 12:25:21+00",5.5,6.5,,37.9,-229,53,21,1019.17,36.3,0
"2016-12-28 12:30:21+00",7.3,8.3,,37.8,-309,60,13,1019.2,36.2,0
"2016-12-28 12:35:21+00",6.5,7.5,,37.6,-275,95,24,1019.37,36,0
"2016-12-28 12:40:21+00",7.4,8.4,,37.6,-312,104,22,1019.46,36.1,0.3
"2016-12-28 12:45:21+00",7.9,8.9,,37.7,-330,115,28,1019.43,36.7,0
"2016-12-28 12:50:21+00",6.6,7.6,,37.8,-242,160,12,1019.54,37.1,3.6
"2016-12-28 12:55:21+00",7.4,8.4,,38,-304,110,24,1019.35,37.6,11.5
"2016-12-28 13:00:21+00",7.6,9.6,,38.2,-230,237,35,1019.5,38,17
"2016-12-28 13:05:21+00",8.1,10.1,,38.3,-264,243,9,1019.42,38.4,25
"2016-12-28 13:10:21+00",9.0,11.0,,38.2,-319,241,26,1019.46,38.6,33.7
"2016-12-28 13:15:21+00",8.0,10.0,,38,-244,263,15,1019.42,38.6,40.7
"2016-12-28 13:20:21+00",9.6,11.6,,37.5,-305,299,26,1019.46,38.4,49.4
"2016-12-28 13:25:21+00",10.1,11.1,,37.1,-297,333,19,1019.55,38.1,57.9
"2016-12-28 13:30:21+00",8.9,10.9,,36.9,-314,241,42,1019.71,37.9,66.9
"2016-12-28 13:35:21+00",11.6,12.6,,36.7,-348,377,26,1019.73,37.8,73
"2016-12-28 13:40:21+00",9.6,11.6,,36.7,-297,310,35,1019.71,37.7,86
"2016-12-28 13:45:21+00",10.3,12.3,,37,-318,317,34,1019.54,37.9,92.3
"2016-12-28 13:50:21+00",11.1,13.1,,37.4,-291,392,14,1019.56,38.3,101.2
"2016-12-28 13:55:21+00",11.4,13.4,,37.8,-361,354,49,1019.74,38.6,110.5
"2016-12-28 14:00:21+00",12.2,14.2,,38.6,-410,357,44,1020.01,39.2,121.5
"2016-12-28 14:05:21+00",11.6,12.6,,38.7,-424,307,43,1019.99,39.5,125.8
"2016-12-28 14:10:21+00",10.8,11.8,,38.5,-434,240,33,1020.02,39.6,125.9
"2016-12-28 14:15:21+00",10.1,12.1,,38.7,-402,203,36,1020.21,39.5,137.8
"2016-12-28 14:20:21+00",9.9,10.9,,39,-411,176,52,1020.18,40,157.5
"2016-12-28 14:25:21+00",9.7,10.7,,39.2,-392,190,28,1020.3,40.4,159.7
"2016-12-28 14:30:21+00",9.4,11.4,,39.4,-385,151,30,1020.36,40.8,168.6
"2016-12-28 14:35:21+00",9.7,11.7,,40,-395,175,40,1020.23,41.2,180.1
"2016-12-28 14:40:21+00",12.5,13.5,,40.2,-517,201,41,1020.29,41.4,185.4
"2016-12-28 14:45:21+00",11.0,13.0,,40.3,-444,213,66,1020.39,41.3,121
"2016-12-28 14:50:21+00",10.1,12.1,,40.3,-414,169,56,1020.61,41.1,115.3
"2016-12-28 14:55:21+00",14.9,16.9,,40.5,-611,274,57,1020.74,41.2,86
"2016-12-28 15:00:21+00",12.9,16.9,,40.8,-475,310,66,1020.71,41.2,74.7
"2016-12-28 15:05:21+00",15.6,17.6,,40.9,-559,422,49,1020.93,41.1,61.2
"2016-12-28 15:10:21+00",17.5,19.5,,40.9,-545,556,54,1020.99,41,87.4
"2016-12-28 15:15:21+00",16.1,18.1,,41,-521,512,65,1020.95,41.3,246.8
"2016-12-28 15:20:21+00",14.7,16.7,,41.3,-451,501,54,1020.86,41.9,110.4
"2016-12-28 15:25:21+00",15.9,17.9,,41.3,-525,502,58,1020.77,42.1,113
"2016-12-28 15:30:21+00",14.1,17.1,,41.1,-454,438,38,1020.81,41.8,80.7
"2016-12-28 15:35:21+00",16.3,18.3,,41,-568,465,51,1020.98,41.5,98.5
"2016-12-28 15:40:21+00",16.7,20.7,,41,-537,508,52,1020.93,41.4,130.5
"2016-12-28 15:45:21+00",19.4,22.4,,41,-644,589,50,1020.92,41.5,147
"2016-12-28 15:50:21+00",15.2,17.2,,41.3,-475,487,66,1020.92,41.9,292.5
"2016-12-28 15:55:21+00",17.3,20.3,,41.2,-481,591,51,1020.75,42.1,128
"2016-12-28 16:00:21+00",18.4,21.4,,41.5,-526,636,46,1020.48,42.5,253.7
"2016-12-28 16:05:21+00",17.7,20.7,,41.6,-355,689,30,1020.37,43,253.8
"2016-12-28 16:10:21+00",16.7,18.7,,41.6,-452,592,46,1020.2,43.2,244.3
"2016-12-28 16:15:21+00",18.2,23.2,,42,-302,740,53,1019.94,43.7,260.3
"2016-12-28 16:20:21+00",19.4,23.4,,41.7,-576,639,43,1019.74,43.6,262.8
"2016-12-28 16:25:21+00",15.8,18.8,,42,-309,617,74,1019.67,43.4,261.9
"2016-12-28 16:30:21+00",15.8,18.8,,41.8,-431,566,49,1019.57,43.7,265.7
"2016-12-28 16:35:21+00",17.0,19.0,,41.9,-325,675,29,1019.58,43.5,266.8
"2016-12-28 16:40:21+00",20.0,22.0,,41.9,-377,798,43,1019.36,43.6,269.4
"2016-12-28 16:45:21+00",18.5,24.5,,42.3,-315,738,82,1019.36,43.9,266.6
"2016-12-28 16:50:21+00",17.5,19.5,,42,-492,612,57,1019.53,43.7,268.3
"2016-12-28 16:55:21+00",19.5,24.5,,42.2,-630,614,47,1019.5,43.7,261.8
"2016-12-28 17:00:21+00",16.2,18.2,,42.1,-274,667,50,1019.31,43.8,263.9
"2016-12-28 17:05:21+00",14.6,17.6,,42.3,-302,576,35,1019.31,44.3,272
"2016-12-28 17:10:21+00",21.1,24.1,,42,-673,653,49,1019.06,43.8,274.3
"2016-12-28 17:15:21+00",17.0,19.0,,42.1,-561,506,44,1019.01,43.6,274.5
"2016-12-28 17:20:21+00",21.2,23.2,,42.4,-606,731,49,1018.96,44,269.5
"2016-12-28 17:25:21+00",17.6,20.6,,42.4,-531,599,75,1018.83,43.8,272
"2016-12-28 17:30:21+00",17.4,19.4,,42.4,-509,579,50,1018.72,44.2,272.9
"2016-12-28 17:35:21+00",16.1,18.1,,42.4,-537,488,42,1018.83,44.1,272.9
"2016-12-28 17:40:21+00",18.8,20.8,,42.6,-659,521,44,1018.9,44.1,253.5
"2016-12-28 17:45:21+00",12.9,14.9,,42.6,-493,297,26,1018.89,44.2,268.9
"2016-12-28 17:50:21+00",13.1,14.1,,43,-271,507,36,1018.81,44.5,221.5
"2016-12-28 17:55:21+00",14.3,18.3,,43,-382,494,57,1018.81,44.8,270.5
"2016-12-28 18:00:21+00",11.2,14.2,,43.3,-259,431,58,1018.67,45.1,230.8
"2016-12-28 18:05:21+00",15.1,18.1,,42.9,-430,514,45,1018.63,44.8,260.7
"2016-12-28 18:10:21+00",13.2,17.2,,43,-441,399,25,1018.75,44.7,253.3
"2016-12-28 18:15:21+00",12.4,16.4,,43.2,-419,345,46,1018.7,44.7,248.8
"2016-12-28 18:20:21+00",18.1,20.1,,43.1,-503,637,39,1018.74,44.6,227.7
"2016-12-28 18:25:21+00",16.0,18.0,,43,-524,481,32,1018.79,44.6,203.8
"2016-12-28 18:30:21+00",10.1,12.1,,43.3,-357,258,40,1018.89,44.7,206.7
"2016-12-28 18:35:21+00",10.4,11.4,,43.2,-259,384,10,1018.91,44.7,139.7
"2016-12-28 18:40:21+00",10.4,12.4,,43.4,-371,273,21,1018.9,45.1,182.7
"2016-12-28 18:45:21+00",12.4,14.4,,43.5,-259,473,10,1018.95,45.2,219.6
"2016-12-28 18:50:21+00",11.9,14.9,,43.7,-443,293,39,1018.98,45.4,232.1
"2016-12-28 18:55:21+00",12.0,15.0,,43.9,-469,261,40,1019.1,45.6,219.1
"2016-12-28 19:00:21+00",16.0,21.0,,43.3,-520,478,50,1019.18,45,223.2
"2016-12-28 19:05:21+00",14.6,17.6,,43.4,-592,274,49,1019.2,45,169.1
"2016-12-28 19:10:21+00",13.1,16.1,,43.3,-515,289,57,1019.17,44.8,169.8
"2016-12-28 19:15:21+00",16.6,18.6,,43.3,-642,380,41,1019.12,44.8,190.3
"2016-12-28 19:20:21+00",17.1,19.1,,43.2,-636,406,32,1019.19,44.5,183.3
"2016-12-28 19:25:21+00",13.8,16.8,,43.3,-553,269,46,1019.17,44.7,157
"2016-12-28 19:30:21+00",14.4,16.4,,43.4,-531,378,42,1019.34,44.7,161.2
"2016-12-28 19:35:21+00",15.4,17.4,,43.1,-587,368,37,1019.21,44.5,162.7
"2016-12-28 19:40:21+00",13.3,15.3,,43.2,-497,327,75,1019.25,44.5,151.4
"2016-12-28 19:45:21+00",14.8,17.8,,43.1,-533,404,44,1019.02,44.3,140.5
"2016-12-28 19:50:21+00",15.3,16.3,,43.2,-473,479,61,1019.03,44.2,132.8
"2016-12-28 19:55:21+00",15.7,17.7,,43.2,-438,543,49,1018.95,44.2,124.7
"2016-12-28 20:00:21+00",14.0,16.0,,43.1,-385,480,34,1019.1,44.1,117.8
"2016-12-28 20:05:21+00",15.5,17.5,,43.2,-527,463,39,1018.93,44.2,109.1
"2016-12-28 20:10:21+00",13.9,14.9,,43.1,-476,417,43,1019.09,44.1,102.5
"2016-12-28 20:15:21+00",13.0,17.0,,43.1,-429,374,27,1018.97,43.9,92.8
"2016-12-28 20:20:21+00",11.7,12.7,,43.2,-395,351,37,1019.29,44,82.8
"2016-12-28 20:25:21+00",12.4,14.4,,43,-427,355,41,1019.1,43.8,75.1
"2016-12-28 20:30:21+00",9.2,11.2,,43.2,-353,232,45,1019.39,43.9,65.7
"2016-12-28 20:35:21+00",9.5,10.5,,43.1,-328,264,36,1019.25,43.9,56.7
"2016-12-28 20:40:21+00",11.3,13.3,,42.9,-416,295,41,1019.53,43.7,50.2
"2016-12-28 20:45:21+00",10.7,12.7,,42.9,-396,271,47,1019.43,43.5,40.6
"2016-12-28 20:50:21+00",10.4,11.4,,42.8,-294,355,22,1019.45,43.3,32.4
"2016-12-28 20:55:21+00",12.0,13.0,,42.6,-318,419,31,1019.31,43.3,23.3
"2016-12-28 21:00:21+00",11.5,13.5,,42.4,-298,401,38,1019.56,42.9,16.6
"2016-12-28 21:05:21+00",13.1,14.1,,42.4,-310,490,25,1019.49,42.5,2
"2016-12-28 21:10:21+00",11.2,13.2,,42.2,-221,438,24,1019.75,42.2,0
"2016-12-28 21:15:21+00",10.2,12.2,,42,-163,403,19,1019.6,41.9,0
"2016-12-28 21:20:21+00",10.1,11.1,,41.8,-161,414,22,1019.94,41.6,0
"2016-12-28 21:25:21+00",10.6,12.6,,41.6,-279,373,29,1019.91,41.2,0
"2016-12-28 21:30:21+00",11.5,13.5,,41.5,-331,389,29,1020.2,40.9,0
"2016-12-28 21:35:21+00",10.4,11.4,,41.5,-284,352,29,1020.21,40.8,0
"2016-12-28 21:40:21+00",10.0,12.0,,41.1,-210,389,20,1020.5,40.4,0
"2016-12-28 21:45:21+00",10.0,11.0,,40.9,-202,389,18,1020.44,39.9,0
"2016-12-28 21:50:21+00",11.1,12.1,,40.9,-257,412,24,1020.35,39.5,0
"2016-12-28 21:55:21+00",9.6,10.6,,40.8,-226,345,24,1020.52,39.2,0
"2016-12-28 22:00:21+00",8.1,9.1,,40.6,-169,312,20,1020.51,38.9,0
"2016-12-28 22:05:21+00",7.6,8.6,,40.3,-136,296,16,1020.54,38.5,0
"2016-12-28 22:10:21+00",8.1,9.1,,40.2,-150,318,14,1020.6,38,0
"2016-12-28 22:15:21+00",8.3,9.3,,40.2,-180,310,17,1020.71,37.6,0
"2016-12-28 22:20:21+00",7.1,7.1,,40.2,-160,260,17,1020.84,37.5,0
"2016-12-28 22:25:21+00",7.1,8.1,,40.3,-134,277,15,1020.89,37.2,0
"2016-12-28 22:30:21+00",6.7,7.7,,40.1,-139,253,14,1020.89,37,0
"2016-12-28 22:35:21+00",8.3,9.3,,40.2,-153,322,18,1020.94,36.8,0
"2016-12-28 22:40:21+00",7.7,7.7,,40.3,-128,308,14,1021.09,36.6,0
"2016-12-28 22:45:21+00",7.5,7.5,,40.2,-106,298,14,1021.06,36.6,0
"2016-12-28 22:50:21+00",7.1,8.1,,40,-134,271,16,1021.03,36.4,0
"2016-12-28 22:55:21+00",6.9,7.9,,39.8,-150,256,16,1020.97,36.2,0
"2016-12-28 23:00:21+00",6.6,6.6,,39.8,-126,252,14,1021.17,36,0
"2016-12-28 23:05:21+00",6.3,6.3,,39.7,-116,237,12,1021.18,35.8,0
"2016-12-28 23:10:21+00",6.8,7.8,,39.6,-137,257,16,1021.17,35.6,0
"2016-12-28 23:15:21+00",6.8,6.8,,39.3,-130,261,16,1021.29,35.6,0
"2016-12-28 23:20:21+00",6.7,6.7,,39.2,-98,266,10,1021.26,35.6,0
"2016-12-28 23:25:21+00",7.1,7.1,,39.3,-95,290,12,1021.32,35.7,0
"2016-12-28 23:30:21+00",7.9,8.9,,39.4,-114,320,13,1021.23,35.5,0
"2016-12-28 23:35:21+00",7.3,8.3,,39.3,-76,305,9,1021.18,35.5,0
"2016-12-28 23:40:21+00",5.9,5.9,,39.1,-52,241,5,1021.26,35.6,0
"2016-12-28 23:45:21+00",6.6,6.6,,39.1,-54,275,5,1021.19,35.6,0
"2016-12-28 23:50:21+00",5.1,6.1,,38.9,-49,204,5,1021.39,35.7,0
"2016-12-28 23:55:21+00",5.6,5.6,,38.8,-55,225,9,1021.41,35.6,0
